Wind_Speed
15 8 7 11 15 18 19 22 33 42 43 42 41 40 39 39 38 37 37 37 34 35 35 34 32 31 30 29 27 24 20 18 17 17 15 16 18 15 18 21 21 20 17 17 17 16 14 12 14 12 9 7 5 3 7 6 2 3 2 3 1 2 2 4 5 4 1 3 2 2 3 5 3 2 2 0 3 3 1 2 3 3 4 3 3 2 13 25
21 12 9 10 11 16 17 17 27 40 42 41 40 39 39 39 38 37 37 37 35 35 35 34 32 31 31 29 27 23 19 17 14 11 13 16 14 14 21 24 21 19 16 15 15 16 13 8 14 15 7 3 2 3 5 4 3 2 3 2 2 3 3 4 4 3 2 4 3 2 2 4 5 4 3 2 1 3 2 3 3 3 5 3 0 8 17 23
22 16 13 13 9 12 16 15 19 34 42 41 40 40 39 39 37 36 36 37 36 35 36 34 33 32 31 29 25 22 17 12 7 8 15 15 13 17 23 22 19 17 15 13 13 15 16 15 20 16 5 3 1 2 2 3 2 1 3 1 3 4 3 3 3 3 3 3 3 3 1 2 4 4 3 4 1 1 4 5 2 4 7 3 3 14 19 21
21 21 18 15 10 9 13 18 17 25 40 43 41 41 41 39 38 36 35 37 36 35 36 35 35 33 30 28 24 22 15 6 3 12 18 17 15 19 21 20 17 15 13 11 10 13 20 21 18 11 5 3 2 2 1 2 1 1 2 2 3 3 1 3 4 4 3 2 2 2 2 2 3 2 3 6 4 2 6 8 9 10 10 7 7 15 19 21
21 23 20 16 13 10 10 16 18 18 33 44 43 41 42 40 38 37 35 36 36 34 35 36 35 33 31 27 24 22 15 4 6 16 21 18 18 20 19 19 16 12 13 12 12 16 21 18 11 6 4 3 1 1 1 2 1 0 2 1 3 3 1 4 4 3 2 2 2 1 2 3 2 2 3 9 6 5 6 7 9 9 9 10 11 17 19 21
20 20 20 15 13 15 11 12 17 18 24 38 45 42 41 41 39 38 37 36 35 34 35 35 34 32 30 27 25 24 14 2 5 18 25 21 20 21 20 18 16 14 15 18 19 18 15 10 7 5 3 3 2 2 1 2 1 1 2 1 2 3 1 3 2 2 2 1 3 3 3 2 3 3 2 8 9 5 3 5 6 7 9 11 13 17 17 19
18 18 19 16 14 15 11 11 16 19 19 28 43 44 41 41 40 39 38 37 35 35 35 34 33 31 29 28 25 18 8 3 3 17 27 25 22 21 20 18 17 17 17 21 18 11 8 6 5 5 4 4 2 3 1 3 1 1 2 2 2 4 3 4 2 3 2 4 5 2 1 2 6 4 1 6 10 4 2 3 4 7 12 14 13 16 17 20
17 18 17 18 18 14 9 9 11 15 17 21 36 46 44 41 41 40 40 39 36 37 36 35 33 30 31 28 18 7 5 4 3 17 27 26 24 22 20 19 18 18 20 21 15 9 6 7 7 5 4 3 4 4 1 1 1 1 3 3 2 3 4 4 4 5 3 5 3 1 2 4 6 3 1 8 10 5 2 3 3 8 11 12 12 15 17 18
15 17 16 16 17 14 9 9 9 10 14 16 28 43 46 42 42 42 42 41 38 38 37 36 33 30 32 23 10 4 8 8 7 19 29 28 27 25 23 22 21 20 22 20 18 15 6 4 6 4 4 3 4 4 3 2 2 3 3 3 3 3 4 3 3 3 2 3 2 3 4 5 3 1 4 7 6 5 2 5 4 6 8 9 10 14 17 17
13 15 16 15 14 12 11 11 11 10 11 13 21 36 45 43 42 42 42 41 39 39 38 36 33 31 30 18 7 6 10 10 11 20 30 30 28 27 25 24 24 22 21 17 17 16 6 5 7 6 7 4 3 3 3 3 2 2 2 4 5 4 4 1 1 2 0 1 4 5 3 4 2 1 4 4 2 1 5 4 3 6 7 8 8 12 17 17
11 13 16 19 18 17 16 14 13 11 11 12 14 30 46 43 43 44 42 42 40 40 39 36 34 33 27 14 8 7 8 11 14 21 30 30 30 29 26 25 24 22 20 14 16 16 9 13 15 8 4 3 4 3 1 4 3 0 2 5 5 4 3 1 1 3 0 1 5 6 2 3 2 2 5 2 3 1 6 4 3 5 6 7 7 8 12 16
10 11 15 19 23 23 23 21 15 11 12 14 14 25 46 45 43 44 42 43 41 39 38 36 36 34 23 10 7 6 8 12 15 22 29 30 30 27 25 25 23 21 19 14 14 15 13 20 19 7 2 6 6 2 3 3 3 1 2 3 6 6 4 3 2 2 2 2 5 6 0 3 3 7 5 1 1 3 5 3 3 5 5 4 6 5 8 13
9 9 13 16 18 20 23 23 18 11 11 15 14 16 39 47 42 44 44 42 41 40 38 37 37 33 19 5 6 8 8 12 16 22 27 30 27 21 21 23 20 20 19 18 17 13 16 23 18 7 5 7 4 2 3 3 2 1 2 2 4 6 5 4 1 2 4 3 4 4 2 4 8 12 5 1 3 6 4 4 4 5 4 3 4 4 6 10
10 7 10 13 14 16 17 18 17 11 7 11 12 10 25 44 44 42 44 43 42 40 37 38 38 28 13 3 5 9 9 12 18 24 28 29 24 16 16 18 16 17 18 19 19 15 18 21 16 10 4 3 3 4 4 4 2 1 0 1 1 0 4 5 2 4 4 2 3 4 3 5 8 11 5 1 3 6 5 5 4 5 4 4 4 5 6 9
12 8 8 11 15 16 15 15 15 12 7 7 10 10 13 36 48 42 41 43 41 41 39 38 36 20 6 2 4 10 12 14 20 27 29 30 25 15 13 16 13 13 15 16 17 16 19 18 13 7 2 1 4 5 3 2 3 2 1 2 2 1 4 7 1 5 4 0 2 5 3 6 8 8 4 2 1 4 6 6 5 5 5 5 5 6 6 7
13 11 9 9 14 18 18 17 16 14 8 5 7 8 10 23 45 46 41 41 39 42 39 30 26 16 5 4 6 11 12 12 20 26 27 30 27 17 16 17 12 11 12 12 15 16 16 11 5 3 3 2 4 5 4 3 2 2 1 1 1 1 2 4 3 0 1 1 1 3 2 3 4 5 4 2 3 3 5 6 5 5 6 5 5 5 5 5
12 12 11 9 11 17 20 19 18 16 11 8 7 7 7 10 34 50 42 40 40 39 36 25 21 14 3 5 9 11 10 11 20 24 24 25 26 23 20 14 11 14 13 12 14 12 7 4 1 2 3 2 3 5 4 2 1 1 1 2 1 1 1 2 3 4 4 2 3 4 4 5 5 4 4 2 4 5 5 7 5 5 5 4 4 4 5 6
11 11 11 10 11 15 18 17 18 19 15 12 8 7 8 11 21 47 42 38 35 28 22 18 19 10 5 10 10 11 15 17 22 24 22 22 24 26 21 12 11 15 13 8 6 4 2 2 1 2 2 2 4 5 4 4 6 5 3 3 2 2 1 1 2 3 4 1 3 3 4 9 10 9 6 1 3 6 6 7 5 5 5 4 5 5 6 7
8 10 10 10 12 12 13 14 16 18 16 15 9 8 9 11 12 35 40 35 25 15 12 13 16 7 5 12 11 13 22 25 24 21 20 23 24 23 19 15 13 11 9 5 3 2 2 3 2 4 3 4 6 8 7 6 7 8 5 4 3 3 1 2 3 2 1 1 4 5 5 9 10 11 7 2 3 5 5 5 4 6 5 5 5 6 7 8
6 8 9 9 12 11 11 13 14 15 15 15 10 4 5 5 5 12 22 25 16 9 10 17 18 5 7 13 15 20 23 22 18 14 19 25 25 20 12 12 10 5 6 8 6 3 4 5 5 6 7 9 10 8 6 5 7 8 5 4 4 2 2 3 3 3 1 1 5 4 5 9 10 11 8 3 1 3 5 6 6 7 6 6 6 7 9 9
5 6 8 9 12 12 11 12 15 15 15 16 11 4 2 4 2 3 5 18 18 4 5 17 14 3 7 16 23 26 17 10 11 11 20 24 23 17 6 7 10 4 4 8 7 2 3 7 7 6 8 10 8 7 7 7 7 7 6 4 4 3 2 4 3 4 1 2 4 2 3 9 10 12 9 3 2 6 7 7 8 8 7 6 7 10 10 8
5 6 7 9 10 12 10 11 16 16 16 17 13 6 3 6 8 5 4 11 17 4 5 18 11 5 9 20 29 31 15 7 9 10 19 21 16 12 6 7 10 5 4 7 7 4 5 6 6 7 8 8 6 7 9 7 7 6 4 4 3 2 2 4 3 3 1 2 4 2 1 8 10 12 10 6 7 8 8 9 9 8 7 7 8 10 9 7
4 5 6 8 10 11 10 10 15 15 16 19 15 10 6 10 18 13 7 3 12 4 4 16 12 6 11 14 25 31 16 10 11 10 18 19 12 9 9 9 8 7 7 8 8 7 5 5 7 8 8 10 7 6 8 6 5 4 4 5 3 2 2 3 2 3 1 2 2 1 3 7 8 9 9 7 7 7 7 8 8 7 8 9 8 7 8 9
5 6 7 9 11 12 11 12 14 13 16 18 16 12 7 9 17 11 3 2 6 4 5 12 10 9 11 10 21 25 12 8 11 14 19 16 12 9 10 11 9 8 7 8 9 7 3 3 7 8 7 11 8 5 7 5 3 2 4 5 3 3 3 3 2 4 3 2 1 2 4 5 5 8 10 5 1 5 6 5 8 7 8 8 5 6 8 10
5 7 8 10 12 13 13 13 12 14 15 15 14 14 10 10 12 7 3 3 4 4 4 8 4 7 13 12 17 15 8 5 3 12 17 12 13 11 8 7 6 10 11 9 8 6 2 2 7 9 7 9 9 6 7 6 5 2 3 6 6 7 5 3 2 5 3 3 2 2 3 5 4 6 9 5 3 6 4 4 8 9 7 6 6 9 10 10
5 7 9 11 13 16 14 9 10 15 13 11 16 17 12 9 10 10 5 3 3 2 6 10 6 13 18 11 11 10 10 4 2 10 15 9 10 9 8 5 0 8 13 9 5 2 2 3 7 10 8 8 8 6 6 7 6 2 5 9 8 7 7 4 1 2 0 3 1 2 2 5 5 5 7 4 4 8 6 5 9 9 7 7 8 10 9 10
5 6 10 12 14 18 11 4 11 16 8 8 19 20 12 10 12 13 5 3 3 3 8 7 4 17 19 13 16 12 9 8 4 9 12 8 8 4 8 9 3 4 6 5 3 2 5 7 6 9 9 8 7 6 8 10 7 3 6 11 9 7 7 5 3 2 3 2 2 3 2 3 6 6 6 2 4 9 8 7 8 8 9 9 9 10 10 11
5 5 8 11 14 16 10 9 14 12 4 10 21 20 15 17 15 13 4 4 2 4 6 3 2 11 12 13 16 7 6 13 10 7 6 4 5 1 7 11 10 10 6 5 5 1 5 10 11 13 10 7 7 6 10 12 6 4 5 9 8 7 6 4 4 3 1 2 3 2 2 2 6 6 3 2 5 10 9 9 9 9 10 10 10 11 11 11
3 4 6 9 12 13 10 9 11 7 6 16 23 22 21 19 12 8 1 4 1 1 3 6 6 9 11 12 9 4 6 8 5 6 4 3 1 2 5 8 11 15 7 4 5 1 2 8 11 13 9 6 5 5 10 12 4 2 6 7 4 3 4 3 3 2 1 1 4 2 2 2 7 6 2 2 4 7 8 8 9 9 9 10 9 10 10 8
2 3 4 7 9 11 11 8 6 7 9 18 24 25 24 15 6 4 4 3 3 0 2 6 7 11 18 15 5 7 10 4 4 8 4 1 3 4 4 6 7 10 4 5 5 2 2 0 4 5 5 5 5 4 6 9 6 6 7 7 6 4 4 3 1 2 1 3 3 3 4 3 6 5 4 5 5 5 7 7 7 9 9 10 10 9 8 6
2 1 2 6 8 11 10 5 8 10 7 17 27 26 19 7 2 5 5 1 3 2 2 6 10 13 21 19 8 9 11 6 10 13 6 3 2 2 7 7 4 5 3 2 2 0 3 3 2 1 2 5 7 4 2 4 8 7 4 5 4 2 3 2 3 2 3 4 3 5 3 6 7 6 3 5 5 4 7 7 9 10 10 10 8 6 6 5
5 3 3 5 7 11 8 2 10 15 8 16 23 17 8 3 3 4 3 2 2 4 5 9 14 16 20 19 12 11 10 7 12 16 13 10 7 8 10 9 8 6 6 8 4 2 3 1 2 1 1 4 8 5 4 4 5 5 4 6 5 1 1 2 2 1 4 4 3 4 2 4 9 6 4 8 8 7 9 8 10 10 9 10 8 5 5 4
8 7 5 6 7 10 8 5 8 15 14 16 15 8 4 4 4 4 4 4 2 3 6 9 15 19 21 18 12 12 11 7 12 15 14 12 9 8 5 6 10 6 5 9 6 4 1 4 2 3 1 3 8 9 4 2 6 6 6 7 6 5 4 6 4 2 4 4 2 2 2 4 6 3 6 12 12 10 8 8 9 9 10 11 8 6 6 6
10 10 7 7 6 9 13 11 9 13 18 15 8 5 6 6 3 4 4 3 0 3 6 10 15 19 19 13 10 13 9 7 14 14 13 11 9 9 4 7 12 4 5 8 4 6 7 3 5 7 3 5 10 9 6 7 7 8 6 5 4 5 5 6 5 3 4 2 1 1 2 3 2 2 6 9 9 9 7 6 7 8 9 8 8 8 8 9
11 12 12 10 8 10 16 16 12 14 17 10 3 5 8 6 3 4 4 3 1 3 7 11 16 17 13 8 9 10 3 5 14 12 10 12 11 12 10 11 14 6 8 10 3 5 8 2 2 1 1 8 10 5 4 8 6 3 2 3 3 4 4 3 4 4 3 2 1 3 4 4 3 6 8 6 5 6 7 7 7 8 8 5 7 9 8 9
11 13 13 10 10 13 16 16 16 17 14 6 3 5 5 3 1 3 6 5 4 8 11 11 13 13 8 6 9 7 5 3 14 9 7 10 9 12 12 11 12 8 8 9 3 3 5 1 3 3 1 7 8 7 6 7 6 2 2 5 4 3 7 5 1 1 3 2 3 2 4 5 3 7 9 5 6 8 8 7 7 8 7 5 7 9 8 7
9 11 10 9 12 14 16 17 20 19 11 3 4 4 2 1 1 2 5 6 5 10 13 10 10 9 7 5 8 10 7 6 10 8 6 7 7 10 12 9 11 13 11 6 2 3 5 3 2 2 3 3 1 6 4 1 4 5 6 7 3 3 3 4 2 2 3 3 4 2 5 5 3 5 6 4 5 10 10 7 5 6 6 5 8 8 7 7
6 6 8 15 19 17 17 22 23 17 7 2 5 6 2 2 3 4 4 7 6 8 11 8 6 8 10 9 10 15 16 12 10 9 8 8 6 11 16 11 11 15 11 4 2 2 5 4 3 1 4 1 2 5 4 2 2 4 5 4 4 3 2 2 3 2 2 3 4 3 4 4 6 6 4 3 3 7 10 8 6 7 5 5 8 8 6 6
6 4 5 15 23 21 22 25 21 11 5 5 7 7 3 2 4 5 4 9 10 8 9 7 4 5 10 13 14 18 18 14 14 11 10 9 5 11 20 12 8 15 12 5 4 3 4 5 1 2 1 1 1 4 6 4 2 2 1 2 1 2 3 3 3 3 3 3 3 3 4 3 6 6 5 7 8 9 11 11 9 8 5 5 6 7 7 7
5 3 2 9 19 24 26 23 14 7 5 7 8 6 4 3 5 6 7 10 10 6 7 8 7 7 10 12 15 15 13 13 15 11 8 11 5 7 17 12 8 15 10 4 5 4 2 4 3 1 1 2 3 4 8 10 6 4 5 6 4 1 1 2 2 2 4 4 3 2 4 5 5 4 9 11 10 11 12 10 9 7 5 6 6 6 6 7
3 4 3 11 22 29 26 14 7 6 5 7 9 6 4 3 6 8 11 10 8 3 3 7 10 10 11 12 13 12 10 11 14 9 4 10 8 5 14 14 12 15 10 5 6 5 2 3 6 4 2 4 3 3 5 8 7 7 6 7 8 5 4 4 3 1 2 3 4 3 5 8 4 4 7 9 9 11 9 6 6 6 6 7 6 6 6 6
3 4 6 18 31 32 20 7 6 7 6 8 10 8 5 4 7 11 12 11 6 1 2 3 9 10 9 12 13 13 12 10 15 13 7 12 13 6 9 14 14 15 11 6 5 4 2 5 5 3 3 4 3 2 2 3 3 3 3 4 6 5 4 6 5 3 1 1 2 3 3 7 4 6 7 7 8 7 5 5 5 6 6 7 7 6 6 5
5 5 5 21 38 32 12 6 9 7 7 9 10 10 8 6 7 11 13 12 7 2 3 3 6 7 6 9 12 14 13 9 13 13 6 7 8 5 10 17 17 15 9 5 6 4 3 4 5 3 0 3 4 3 2 1 1 3 4 2 5 5 4 5 4 4 3 3 3 2 4 6 4 3 3 4 5 6 5 5 5 6 5 7 7 6 6 5
5 4 0 15 36 30 10 6 10 8 8 10 12 12 9 7 9 12 13 14 8 4 5 5 6 6 6 9 13 17 16 10 10 9 3 4 3 3 14 22 20 16 9 7 9 6 3 4 5 6 3 3 4 4 3 3 3 4 3 3 5 6 6 4 2 4 2 7 8 5 6 6 4 3 2 4 6 7 9 5 5 5 6 6 6 6 5 5
4 4 2 10 23 20 8 8 11 11 13 14 14 15 12 7 10 14 15 14 11 9 9 8 8 7 6 10 12 16 15 8 6 6 2 4 1 1 13 21 20 16 9 7 9 5 3 5 6 8 8 7 7 6 5 5 3 1 3 8 10 11 11 7 3 4 6 7 9 9 8 4 4 3 1 4 5 7 9 3 2 5 6 6 6 6 6 5
3 4 4 6 10 10 8 9 11 12 14 15 13 15 15 10 8 13 16 14 12 11 8 6 6 5 7 13 12 12 12 3 5 6 4 6 3 1 10 19 17 13 10 13 12 6 3 3 6 9 12 11 9 6 5 9 9 7 9 12 12 10 12 8 5 5 8 4 6 13 12 6 6 4 3 7 6 7 8 4 3 5 6 5 6 6 6 6
4 4 5 5 5 8 8 8 11 11 13 17 13 12 16 15 10 12 16 13 10 9 3 3 8 7 9 14 12 12 13 4 6 11 8 6 4 3 6 14 14 14 14 13 11 6 4 5 9 11 11 5 3 3 8 13 14 14 12 12 11 10 12 12 10 12 8 6 8 14 11 12 12 7 7 8 5 6 7 5 5 6 4 4 5 7 7 6
5 3 5 6 4 7 10 12 14 14 17 19 14 13 20 19 14 14 13 9 9 10 5 3 11 14 15 18 13 11 13 6 5 11 10 7 7 6 6 7 9 15 15 10 9 6 5 7 10 11 6 3 5 3 10 12 10 10 12 14 14 14 16 18 20 17 11 9 15 9 11 17 15 8 8 8 6 7 7 5 4 3 2 4 6 7 6 6
5 3 4 7 6 7 13 19 22 20 21 21 15 15 21 21 17 15 12 8 9 13 11 9 14 17 17 18 13 11 15 12 9 11 11 12 13 12 10 6 6 10 13 11 8 5 5 5 6 8 4 5 6 1 6 9 7 7 10 13 13 16 19 22 25 20 12 15 19 6 6 16 11 8 11 9 6 6 3 1 2 3 4 6 7 7 6 7
5 4 5 7 8 9 12 18 22 20 19 20 16 14 18 21 19 14 12 13 13 12 13 15 19 19 19 20 16 14 19 21 20 20 19 19 17 13 12 11 8 8 9 10 7 3 4 4 3 6 5 4 5 4 4 7 8 8 9 10 12 16 20 22 22 13 8 17 20 8 10 15 6 8 9 6 2 2 3 4 5 5 7 7 7 8 8 8
10 9 8 7 8 12 12 13 18 18 16 18 17 15 17 22 22 15 10 13 18 18 19 22 23 20 18 21 21 20 25 27 25 23 22 20 16 10 6 7 12 13 9 8 5 2 3 2 2 6 6 2 2 3 6 6 6 5 6 12 17 18 17 17 14 10 12 18 17 10 13 13 5 7 6 3 3 5 6 7 7 7 8 7 8 10 9 9
13 12 12 9 8 12 13 12 18 19 15 16 18 17 18 22 22 18 11 10 16 20 20 22 23 18 16 23 27 25 24 20 13 11 12 11 9 7 6 9 15 17 12 8 4 3 6 5 2 6 7 4 1 4 7 7 5 2 10 18 21 18 14 12 12 15 19 18 13 12 14 9 5 8 8 6 7 9 9 9 8 8 9 8 9 10 10 10
Wind_Direction
214 210 226 238 242 231 214 203 202 199 193 191 195 193 193 193 192 193 192 191 191 190 190 190 190 190 189 189 188 183 179 171 163 167 174 181 184 177 172 177 175 166 155 143 136 127 109 110 130 120 87 52 11 347 341 330 62 47 71 99 187 171 197 181 177 205 191 329 298 218 211 161 178 206 176 60 52 58 76 303 301 279 270 240 291 346 160 165
217 219 228 232 237 236 228 211 202 203 197 191 193 194 192 192 191 193 192 190 191 190 188 188 189 188 187 187 185 180 179 176 169 180 181 173 174 172 169 170 170 166 159 155 152 136 118 103 119 113 82 49 356 352 344 338 45 62 114 111 214 194 210 186 184 219 215 332 311 237 204 175 197 168 151 200 312 54 137 260 325 311 265 282 21 145 156 164
207 217 224 227 240 247 245 238 210 204 202 195 192 194 193 192 192 192 192 191 190 189 187 187 187 185 186 185 182 181 178 164 166 204 186 166 164 169 169 170 168 167 162 157 158 146 138 134 123 112 72 53 44 354 10 358 5 106 121 110 231 213 240 199 203 241 244 310 315 277 144 192 223 161 161 179 160 109 190 223 224 244 233 225 155 150 157 168
199 213 219 225 240 258 255 248 230 205 202 197 193 194 193 192 192 192 192 191 189 188 187 188 189 187 188 185 185 184 165 126 217 213 186 168 167 167 167 170 167 168 169 152 145 144 135 126 114 103 86 74 1 14 64 324 344 119 148 169 198 188 274 217 206 244 252 219 249 271 127 222 237 177 184 151 138 241 237 222 203 212 202 183 176 163 164 172
193 206 213 221 229 243 249 242 241 217 200 197 194 193 192 192 192 191 191 191 188 186 186 188 191 191 191 187 185 174 144 101 234 206 190 176 172 169 162 163 159 156 161 148 131 128 126 118 100 76 74 99 35 68 148 275 70 155 222 156 170 158 231 248 223 227 226 182 193 168 175 213 177 188 192 160 178 229 231 228 214 213 188 172 174 171 170 175
185 191 201 209 215 226 236 241 244 232 206 197 194 192 192 191 190 190 191 190 186 184 185 187 189 190 188 183 176 165 149 159 211 193 193 182 171 167 158 155 156 154 147 139 133 128 120 106 99 99 87 98 132 163 196 278 77 198 266 355 188 157 208 255 252 227 155 145 202 189 216 175 155 237 193 180 211 208 216 250 228 213 180 166 163 169 175 179
181 181 191 200 208 217 229 245 244 237 221 200 194 193 192 191 190 190 189 188 184 182 182 183 183 183 181 173 167 165 171 249 198 183 189 183 173 165 158 151 154 159 148 134 127 126 123 108 111 117 109 100 154 183 187 309 10 164 254 292 191 166 222 234 245 281 177 190 226 207 186 161 192 221 98 216 230 211 274 298 215 181 160 156 159 173 184 185
183 184 186 192 201 204 215 247 250 238 231 208 196 194 192 191 189 188 188 186 182 180 180 180 178 177 175 167 161 165 201 232 172 175 182 182 177 167 162 153 152 158 150 142 137 142 130 117 133 130 123 131 158 162 119 317 345 183 234 271 228 196 242 251 262 283 232 210 234 181 230 241 211 181 157 236 237 232 280 27 119 147 147 157 168 181 189 191
181 185 184 184 190 194 209 247 259 244 240 222 201 194 191 191 188 187 187 186 182 181 180 179 176 175 174 166 151 163 196 191 145 167 177 180 177 171 168 160 159 158 147 149 155 154 137 132 164 146 127 137 163 160 135 171 216 198 208 262 277 281 289 292 278 281 244 224 147 175 258 286 239 184 263 250 234 220 125 68 103 135 151 170 177 185 190 194
170 178 191 194 194 205 217 242 256 257 257 237 213 197 190 190 189 186 186 185 183 182 181 180 178 175 173 166 152 175 195 182 150 165 176 177 173 170 171 166 165 160 149 154 162 160 157 160 157 121 107 114 169 142 123 163 173 174 215 268 259 282 294 341 348 312 358 211 167 181 251 291 287 269 252 272 313 211 112 96 130 149 177 185 185 191 192 196
166 173 197 210 214 222 225 239 251 250 250 246 233 203 190 188 189 186 185 185 183 182 182 181 178 176 173 168 173 181 186 175 155 166 177 178 172 170 173 171 170 165 156 158 168 175 179 154 138 113 103 119 136 109 207 190 129 129 294 285 270 300 287 181 308 284 246 193 177 162 216 300 333 253 226 256 337 140 133 149 178 180 199 195 193 196 195 202
173 167 182 201 212 218 222 232 240 236 237 244 251 206 188 188 187 185 184 183 182 182 181 180 178 175 168 167 195 186 176 173 158 165 178 178 171 171 173 172 175 174 164 159 172 182 176 155 138 109 142 141 131 136 231 184 103 346 355 310 293 342 327 247 243 235 163 189 179 146 285 291 231 230 237 333 43 107 124 175 212 211 215 202 202 202 205 209
176 167 171 186 198 202 207 219 226 226 227 234 252 212 187 186 185 184 183 181 181 181 179 177 175 171 164 172 198 181 174 173 163 166 175 176 170 168 172 169 170 178 176 170 172 179 175 163 143 110 131 133 138 161 130 89 89 268 28 13 308 347 321 283 18 116 149 173 165 149 256 264 239 239 244 40 134 114 130 207 214 225 230 216 209 207 218 214
174 174 179 181 184 189 192 202 213 220 230 231 248 246 194 186 184 184 182 179 179 178 176 174 173 169 166 170 179 183 179 169 168 168 171 174 165 154 164 166 159 169 174 169 173 180 173 158 130 104 102 111 144 135 85 47 54 144 346 345 349 305 275 296 34 125 154 171 129 143 238 264 260 257 259 290 165 144 189 227 213 223 233 223 212 210 223 219
181 186 186 186 186 191 195 201 210 217 231 232 235 266 226 189 183 183 181 178 177 175 171 171 172 163 151 186 185 184 172 163 170 171 174 174 163 145 154 161 150 154 161 162 173 173 160 144 116 107 102 56 122 108 73 42 34 46 195 309 5 184 275 313 357 148 168 308 110 146 218 268 268 271 291 308 193 169 209 229 220 222 228 225 221 215 222 227
187 192 189 191 187 191 202 210 212 211 212 207 202 233 244 196 183 181 181 177 173 171 165 166 172 160 148 175 159 167 163 163 174 172 174 175 167 149 141 144 128 132 149 152 158 155 145 129 101 108 110 104 125 110 86 65 20 7 135 220 324 150 286 320 335 168 139 68 203 201 216 269 278 286 325 6 163 178 232 243 235 230 233 227 226 226 228 236
186 196 196 198 186 185 196 205 206 206 207 204 199 202 245 230 183 177 178 173 168 167 164 162 164 156 148 148 151 171 161 160 173 169 168 175 170 152 138 130 107 112 121 128 145 146 124 95 97 115 82 94 139 117 101 119 197 311 131 179 214 176 171 296 320 350 17 92 211 239 233 244 262 278 316 4 154 168 232 249 248 244 243 236 233 240 241 238
178 193 197 200 191 180 186 195 197 200 204 199 206 217 243 284 190 173 169 163 158 155 156 155 153 158 220 184 163 160 153 155 165 164 163 169 169 158 146 132 113 110 106 112 143 142 65 47 101 128 78 87 133 136 159 191 185 176 174 162 199 213 178 284 285 342 8 10 226 218 239 255 266 271 275 288 157 177 224 245 248 249 245 241 237 235 239 238
171 187 191 194 191 185 185 186 185 191 196 187 187 212 234 289 218 173 158 151 154 156 157 161 164 173 201 173 146 134 154 159 156 159 158 157 158 152 143 135 127 122 122 135 172 177 140 97 109 153 154 164 169 179 185 183 169 164 165 147 160 202 224 260 261 285 45 350 270 224 227 253 261 266 263 252 168 188 237 263 254 251 245 239 236 233 237 235
174 183 185 186 186 189 188 181 178 180 187 186 176 180 227 274 253 182 154 153 177 185 162 170 171 138 89 130 133 132 146 150 143 153 157 154 149 137 129 132 125 133 151 153 166 181 156 152 181 178 173 183 185 182 162 144 147 144 135 126 127 139 269 263 265 294 130 166 272 242 236 257 259 265 262 243 191 223 247 258 249 246 240 233 231 235 236 233
180 181 182 182 180 189 190 179 180 187 203 209 192 152 211 194 180 289 151 167 188 179 130 164 156 82 111 135 140 133 124 121 124 147 157 152 145 137 144 149 138 159 169 145 137 123 172 180 187 176 170 178 177 155 137 132 138 138 141 144 126 126 246 256 252 299 347 182 270 319 260 261 262 265 260 207 223 251 234 234 247 242 237 238 236 239 239 240
178 181 177 176 175 182 185 176 174 182 199 203 193 184 226 205 202 275 2 172 186 138 108 160 139 41 122 136 143 136 112 100 122 155 164 155 153 156 168 161 150 154 149 136 125 133 190 192 172 166 162 156 150 145 143 142 142 139 132 141 161 171 248 268 263 308 8 185 264 360 301 264 263 265 261 214 219 247 231 222 237 233 229 233 231 237 241 245
163 171 167 172 174 172 174 177 172 175 182 179 181 201 224 220 224 252 322 206 184 127 127 165 148 108 127 136 151 144 131 143 149 178 178 163 163 162 152 158 150 135 150 163 157 159 181 190 169 163 154 147 153 157 143 132 128 128 126 141 184 192 205 238 261 306 291 183 257 322 303 276 269 272 268 233 220 251 251 237 242 234 226 231 234 238 234 234
139 157 162 167 170 167 164 167 172 182 189 181 183 195 185 204 225 235 324 292 184 144 155 162 146 138 143 146 159 155 143 146 153 174 182 171 153 146 153 154 136 137 169 174 160 156 158 183 154 138 145 148 149 159 149 142 135 133 149 152 166 182 190 212 272 322 323 9 12 331 309 279 255 259 261 260 269 269 275 272 264 252 239 245 268 260 235 230
133 153 160 163 166 167 164 164 175 187 189 190 197 196 171 174 203 181 70 317 191 145 147 156 144 150 147 143 158 156 126 110 143 166 179 179 151 144 153 150 141 161 172 159 149 152 177 204 144 132 147 150 149 170 170 166 167 189 199 173 174 178 176 207 313 4 11 344 358 8 298 274 274 263 252 271 313 266 281 298 266 258 251 247 255 251 241 239
127 150 158 165 166 165 164 166 184 185 183 194 202 201 189 175 180 154 97 329 212 167 160 164 173 161 153 146 147 133 129 143 342 153 167 183 164 152 147 146 76 165 163 149 144 165 175 171 145 144 149 146 153 176 182 167 154 214 210 179 175 163 155 182 236 43 101 249 290 79 228 269 304 285 257 277 287 266 273 279 264 262 259 240 239 245 241 242
113 149 161 166 169 167 164 150 171 176 176 191 194 199 198 172 153 134 109 301 243 174 159 159 185 169 164 160 151 142 151 149 92 156 176 182 177 169 153 155 119 143 156 135 157 207 136 134 142 146 143 152 170 181 188 171 155 231 205 169 167 159 167 176 136 162 225 260 329 44 117 267 288 266 261 305 290 277 275 269 265 261 257 245 240 245 240 239
110 144 165 170 177 172 152 132 156 169 172 169 178 185 178 159 137 110 110 242 197 135 149 134 151 156 150 153 153 138 135 135 133 174 193 168 173 174 163 168 150 148 159 154 176 237 129 159 173 163 159 182 184 169 172 163 158 240 185 156 169 168 170 153 125 199 258 352 314 359 99 256 273 264 293 327 253 263 268 262 259 254 253 249 243 245 243 243
119 138 168 175 182 179 167 157 155 157 161 161 167 172 162 148 125 92 156 222 107 83 156 139 143 139 131 143 149 112 118 128 134 151 143 134 94 42 154 162 140 145 152 138 152 175 179 186 179 164 170 189 161 133 158 159 156 196 136 108 97 107 101 101 135 179 47 310 243 214 129 256 273 257 255 295 243 247 258 261 258 252 253 252 250 250 248 252
160 141 170 175 177 184 194 208 185 154 153 161 165 163 153 138 114 134 201 202 116 182 182 144 161 154 144 144 141 140 136 107 110 124 118 122 45 28 97 82 95 133 117 48 103 175 289 66 155 160 178 172 126 98 156 159 139 128 118 84 66 57 57 70 91 109 118 266 246 219 161 149 278 261 188 214 221 205 226 251 260 256 257 254 250 252 256 262
241 196 192 185 184 188 192 222 208 188 165 162 157 150 146 137 137 176 193 171 102 188 189 144 156 156 151 149 146 147 135 112 139 138 137 151 99 102 124 102 84 114 107 88 121 332 36 88 164 218 187 138 109 79 36 119 138 134 120 115 107 38 39 44 3 55 213 253 253 248 187 154 237 253 183 229 243 211 215 228 246 248 252 256 253 253 264 266
258 252 230 208 202 195 183 153 205 207 196 162 153 143 146 168 196 190 164 123 149 196 182 150 156 159 157 154 147 143 131 129 156 152 153 160 154 163 162 161 159 142 168 182 161 71 58 143 213 330 274 154 127 115 30 45 153 150 122 138 138 84 91 207 277 205 232 252 227 230 201 197 242 251 237 251 253 240 225 220 238 249 255 264 268 269 276 273
265 265 258 239 228 213 196 138 179 200 185 166 161 156 179 196 196 176 140 152 173 165 162 160 162 161 160 158 149 140 129 138 164 158 154 157 158 172 173 159 158 144 168 167 137 122 113 306 238 144 231 194 152 149 141 155 182 178 168 165 159 146 166 204 208 209 247 255 246 217 199 256 281 278 232 239 245 248 241 234 241 248 257 267 280 288 286 280
267 271 278 262 243 229 217 196 180 178 166 164 179 188 197 211 186 122 134 179 105 106 154 163 159 160 161 156 150 146 132 152 165 155 151 153 162 177 169 172 177 136 109 149 152 162 167 248 208 173 195 191 171 169 157 146 164 186 182 163 169 169 174 195 191 194 225 233 278 264 208 214 226 256 232 226 246 268 274 265 254 252 258 269 288 291 280 273
272 275 281 271 243 228 220 211 198 174 156 153 202 209 208 211 159 135 148 158 149 140 160 162 157 160 159 145 153 153 96 156 162 149 158 166 172 178 172 181 186 153 136 163 181 169 165 215 240 189 178 167 167 175 122 117 145 199 160 138 212 191 145 148 180 175 165 165 231 220 228 218 205 274 270 236 248 275 270 268 270 268 267 269 276 274 266 264
270 276 279 267 239 229 219 208 195 178 159 145 203 216 224 218 163 173 154 146 175 156 150 166 167 161 155 143 159 153 34 125 157 146 167 174 178 183 176 179 181 172 169 162 135 159 154 80 340 18 88 167 167 170 159 151 157 144 163 192 208 151 117 116 188 70 95 186 242 218 251 286 309 286 280 272 276 281 273 269 270 271 278 283 269 264 264 268
259 270 270 253 235 224 209 197 185 174 162 155 206 210 219 204 210 204 156 142 162 157 154 172 175 160 151 140 155 149 111 124 156 154 165 173 188 190 181 180 178 181 188 164 123 196 149 99 341 54 134 212 193 137 142 171 141 141 190 197 144 98 101 110 152 5 64 212 267 265 245 273 279 265 300 336 276 267 275 280 275 275 282 284 271 266 267 265
242 248 256 248 236 216 196 189 177 167 164 189 216 212 182 136 187 215 181 138 142 169 170 173 177 168 162 156 157 157 150 153 169 165 162 177 201 188 181 187 182 182 190 158 113 196 131 101 320 328 143 238 359 116 129 352 103 154 199 192 132 163 205 141 158 169 161 222 280 300 279 258 213 228 295 337 253 260 281 292 295 289 281 276 279 281 285 281
226 228 259 242 230 210 187 179 168 159 176 194 217 217 173 123 186 221 210 157 154 180 183 182 193 179 173 166 158 162 164 165 169 166 169 186 205 188 184 183 173 179 184 153 140 169 117 111 243 287 154 154 104 157 181 179 106 73 156 185 157 150 172 170 164 158 166 201 250 304 320 270 222 207 206 234 247 255 267 276 279 276 260 253 273 289 300 300
212 227 248 209 206 194 177 168 162 165 188 199 217 209 151 146 186 226 239 185 164 179 192 194 189 170 176 170 157 163 166 160 169 177 181 180 173 190 190 178 156 171 168 114 137 156 98 110 151 194 4 170 187 209 189 172 164 159 162 183 197 163 123 155 159 130 135 162 198 277 291 262 247 198 188 208 229 237 247 258 263 271 270 261 264 273 287 295
192 236 204 172 178 172 165 163 169 176 191 211 217 204 170 163 169 204 240 220 189 191 193 195 190 175 172 167 159 162 156 153 173 183 184 181 173 191 194 176 153 159 150 110 146 162 109 109 138 144 160 185 223 256 186 174 186 179 174 192 189 170 138 150 201 221 98 157 177 178 262 266 245 197 200 204 212 224 226 222 242 270 283 280 275 265 266 280
212 235 184 171 169 161 158 175 177 177 202 208 208 200 180 169 169 187 217 233 229 194 84 198 199 189 179 169 164 163 157 160 178 184 195 194 188 188 178 157 146 157 158 136 143 152 111 104 114 134 189 204 254 292 191 195 199 170 198 201 165 158 148 151 197 212 121 204 153 119 269 272 230 194 204 212 222 233 208 182 223 255 263 270 278 275 270 275
224 220 169 170 167 157 158 197 174 184 213 197 200 201 181 175 182 180 193 215 229 148 140 188 193 199 201 173 162 163 161 165 184 188 183 179 187 184 153 143 142 155 156 135 146 154 128 114 104 101 209 301 323 343 358 356 132 191 235 179 140 174 165 145 180 170 159 202 146 107 263 263 260 239 229 245 273 283 250 214 228 255 268 270 273 278 278 278
227 213 219 181 172 162 163 198 177 188 205 195 200 202 191 190 191 184 188 201 206 172 177 188 183 200 199 168 167 171 168 169 190 195 154 132 179 172 151 149 151 160 169 169 169 163 135 136 128 117 96 354 340 339 308 257 204 203 202 150 167 174 137 122 142 120 193 207 164 175 238 243 275 310 322 294 299 289 267 230 200 242 276 282 277 283 281 280
236 202 206 202 187 177 183 194 182 188 192 192 197 196 196 201 195 190 192 197 199 187 187 194 187 180 166 164 172 177 176 170 174 182 121 112 141 144 155 157 159 168 169 148 146 131 119 157 152 142 153 180 194 205 217 196 178 213 174 175 191 181 162 164 125 129 225 209 166 199 232 250 292 311 335 279 269 265 267 249 168 238 258 272 281 293 295 292
227 208 179 191 196 197 207 198 191 196 189 183 190 195 194 198 198 191 191 199 206 195 188 191 173 148 160 168 164 175 185 144 111 153 127 125 143 290 168 163 164 168 147 133 143 127 96 178 185 174 181 188 188 188 140 127 148 193 196 186 188 183 175 162 124 186 212 157 177 224 228 242 266 244 241 260 242 242 261 287 314 267 253 267 279 280 281 278
222 214 177 178 189 194 206 203 199 206 192 180 184 187 187 193 195 189 193 201 201 190 188 171 161 157 171 168 160 177 183 124 109 151 143 128 104 46 155 164 164 162 142 139 159 137 105 197 203 191 193 179 137 155 135 143 174 189 182 178 178 175 176 177 199 213 171 130 229 230 209 228 239 214 226 250 232 237 253 249 254 255 257 287 283 277 283 283
229 209 172 202 224 193 194 195 196 205 197 186 184 180 183 190 190 186 192 197 187 185 186 174 176 178 175 170 167 174 172 149 144 160 150 141 127 107 146 178 184 170 151 152 181 149 135 205 201 185 184 58 54 144 150 154 175 174 169 180 180 178 182 194 215 213 161 185 237 208 177 224 231 199 214 230 215 229 233 213 229 268 301 283 275 283 295 290
220 233 196 216 236 215 201 192 189 198 199 191 189 185 184 189 191 187 179 171 188 195 187 180 186 183 176 173 172 170 173 176 179 175 166 159 153 147 153 180 218 192 164 163 184 172 165 203 186 163 144 35 20 25 146 147 147 152 177 184 178 187 195 203 218 214 185 223 242 204 196 243 233 190 215 225 219 231 235 237 294 294 261 250 259 272 270 263
212 219 198 205 223 227 220 201 187 190 196 191 191 188 183 186 191 189 177 171 178 190 191 187 184 179 176 178 178 182 187 187 185 182 175 166 165 167 169 172 178 180 174 172 180 201 201 194 143 127 111 28 4 22 86 133 146 159 181 185 187 201 208 214 224 215 197 239 247 244 267 267 227 179 217 232 216 243 272 268 257 246 245 246 254 260 256 255
225 224 212 212 221 213 215 209 192 187 192 192 188 182 181 187 186 181 188 189 179 179 190 188 180 175 176 180 186 194 196 196 193 185 176 170 167 163 166 166 154 154 170 175 160 147 170 173 85 117 142 234 330 79 100 108 115 141 186 200 201 204 210 219 225 206 204 231 239 240 258 259 195 168 207 225 212 231 248 253 248 242 240 236 240 249 252 252
225 229 223 223 230 212 200 199 195 191 188 185 182 177 180 186 181 174 183 205 196 191 193 186 176 169 174 188 197 200 196 192 185 166 157 156 147 128 120 138 150 155 158 157 145 127 136 136 120 144 166 220 284 135 131 104 87 186 221 210 201 200 209 220 227 219 215 220 219 222 236 232 151 160 192 213 226 232 236 237 240 242 234 226 232 240 248 255
Height
722 724 726 729 731 732 732 735 739 742 745 748 752 755 758 760 763 766 769 773 777 780 784 786 789 793 796 798 801 803 806 807 808 809 809 809 810 811 813 816 818 819 821 821 821 822 824 827 829 832 835 840 846 847 845 844 844 844 851 857 859 863 860 856 857 857 854 850 849 852 853 851 851 853 853 853 853 855 859 859 858 857 856 855 855 855 855 857
720 723 726 728 729 730 731 733 737 740 743 745 750 753 756 759 762 765 767 772 775 779 782 785 789 792 795 798 800 802 805 807 808 809 808 809 809 810 813 815 817 819 820 820 821 821 824 828 829 832 838 845 850 849 848 846 845 849 857 859 858 860 857 856 855 854 854 851 849 851 853 852 850 851 852 852 855 857 858 858 858 857 855 854 855 855 856 858
718 722 725 727 729 730 731 733 735 738 741 744 748 751 755 757 760 763 766 770 774 778 781 784 788 791 795 797 799 802 804 807 809 808 807 808 809 810 812 815 817 818 819 819 820 821 823 826 828 832 840 848 852 851 851 849 848 852 857 857 857 857 855 856 856 854 854 854 851 850 853 854 850 850 851 851 856 859 856 854 856 855 853 854 855 855 856 859
717 720 724 726 728 730 731 733 734 737 740 743 746 749 753 755 759 762 765 769 772 776 779 783 787 790 794 796 799 802 803 810 809 805 806 807 809 810 811 814 816 817 818 819 820 822 823 826 828 832 841 850 855 853 853 851 851 854 854 854 855 857 855 853 854 853 854 856 853 851 854 853 850 851 851 851 855 857 853 848 848 848 848 852 855 855 855 858
715 718 723 724 726 730 731 732 734 735 738 742 744 747 751 754 757 761 765 769 771 774 777 782 786 789 793 796 800 800 805 816 808 800 805 807 808 810 811 814 815 816 817 817 820 823 825 826 829 834 842 851 856 855 855 853 852 854 853 852 854 856 853 850 852 852 853 855 853 853 852 850 850 850 849 849 849 849 846 843 843 843 845 848 851 853 854 856
714 716 720 722 725 729 730 733 734 734 735 739 743 746 749 752 756 759 764 768 770 773 777 781 785 789 793 796 799 799 804 812 801 797 804 805 807 810 811 813 814 816 817 818 821 825 826 827 830 837 843 851 856 855 855 855 854 854 853 853 854 855 852 850 851 851 853 853 851 851 850 850 850 848 850 849 842 841 841 842 843 843 845 847 849 852 853 854
712 714 717 720 724 727 730 733 734 734 734 737 741 743 747 751 754 758 762 767 769 771 776 780 784 788 792 795 799 800 801 801 796 796 802 804 807 809 810 813 814 816 817 818 822 825 827 829 833 839 843 850 855 854 855 855 854 855 854 852 853 854 851 849 850 851 852 851 849 851 850 850 848 847 852 847 839 839 842 842 842 843 845 847 849 851 851 852
711 713 716 719 723 726 730 731 733 734 734 735 738 741 745 748 752 756 761 765 768 771 775 779 783 787 791 794 797 802 802 798 795 797 800 803 806 808 810 812 814 816 817 818 821 825 827 830 833 837 842 848 852 853 856 856 855 855 854 852 852 852 849 849 851 850 850 849 851 852 849 849 849 850 850 842 837 840 842 842 842 843 845 847 848 849 851 852
710 712 715 718 722 726 729 731 732 733 733 733 736 739 743 747 751 755 759 763 766 770 774 778 783 786 790 792 795 802 800 795 796 797 799 802 805 807 809 811 813 815 816 818 820 823 827 830 833 833 838 847 850 852 855 856 856 854 853 852 850 848 847 849 848 847 849 849 851 851 848 849 850 851 845 836 837 839 841 842 843 845 846 846 847 848 850 851
710 712 714 717 720 725 728 730 732 732 733 734 735 739 742 745 749 753 758 761 765 769 773 778 781 785 789 791 797 801 796 794 796 796 799 802 804 807 808 810 812 814 816 819 820 822 825 828 831 830 835 845 849 852 854 855 854 852 852 851 850 848 847 848 846 847 849 848 850 849 849 850 850 852 842 835 840 841 840 843 844 845 846 846 846 847 848 849
710 712 714 717 720 724 727 730 732 732 733 734 736 738 740 744 748 751 756 760 764 768 772 777 780 784 788 790 796 798 792 793 796 796 799 802 803 806 807 810 811 813 816 818 821 822 823 826 828 830 836 843 849 855 855 852 852 853 852 849 849 847 846 847 845 847 847 846 849 848 848 850 851 849 838 835 842 842 840 842 845 845 845 846 846 847 848 848
710 711 713 717 720 723 726 729 731 731 733 735 736 737 738 742 746 750 754 758 762 767 772 776 779 783 787 792 794 793 791 793 794 796 799 801 804 806 807 810 811 813 815 818 821 822 824 826 826 831 837 841 849 855 851 850 852 851 851 851 849 846 845 846 844 847 846 844 847 848 850 852 849 843 834 837 842 841 841 842 845 846 845 847 847 848 848 848
709 711 713 716 718 721 724 727 730 731 732 734 736 736 738 742 746 751 753 757 761 766 771 774 779 782 787 792 792 790 792 793 794 796 799 802 804 806 808 810 811 814 815 817 820 822 825 825 825 831 836 840 848 850 846 849 852 851 853 854 854 853 850 847 847 849 846 845 847 849 854 850 842 837 833 839 842 840 840 840 844 847 846 847 847 848 848 848
708 710 713 715 718 720 722 725 728 730 732 734 736 737 739 741 746 751 753 756 760 765 770 774 779 782 787 790 790 790 792 792 794 795 798 801 804 807 809 811 812 814 815 817 820 822 825 825 826 832 837 841 845 847 848 852 853 854 856 857 860 863 855 847 849 849 844 847 847 848 856 847 835 833 835 840 841 838 837 837 842 846 847 847 846 847 847 847
708 710 713 715 718 719 721 723 726 729 732 734 736 738 739 740 743 749 754 756 760 764 768 774 778 781 787 790 788 789 791 792 794 794 797 800 802 806 809 811 813 814 816 818 820 823 825 826 827 834 840 842 843 847 852 855 855 857 860 863 867 867 859 848 848 849 844 848 848 848 854 847 834 831 835 842 843 839 835 835 840 843 846 846 845 846 845 845
708 711 713 715 717 719 721 724 726 729 732 734 735 737 738 740 741 746 753 757 761 765 768 774 777 779 786 788 787 788 790 791 793 794 797 799 801 805 808 811 813 815 817 819 821 824 825 827 830 835 841 844 844 847 853 858 859 860 862 866 868 867 865 855 849 851 848 848 848 847 849 843 835 833 837 843 842 841 837 835 839 842 843 845 844 845 844 844
709 711 713 716 717 719 721 724 726 728 732 734 735 736 738 739 740 744 752 757 762 765 767 771 775 779 785 785 784 785 786 789 791 794 797 800 801 804 807 810 814 816 818 821 823 825 825 829 834 837 840 844 844 845 856 866 864 863 864 864 865 864 865 859 850 851 852 850 849 848 848 840 832 833 837 840 841 841 838 835 838 840 841 843 843 844 844 844
710 711 713 715 716 718 720 722 725 728 732 735 735 736 737 739 741 744 749 754 760 766 770 772 777 781 781 778 778 778 781 786 790 793 796 800 802 804 806 810 814 816 819 824 826 827 828 831 836 839 843 846 846 846 856 862 859 860 862 863 865 862 863 861 853 853 853 850 850 850 851 843 834 833 833 838 842 839 835 836 838 838 839 841 842 842 842 842
710 712 713 714 715 717 719 721 723 726 730 734 736 737 738 740 741 741 743 748 752 756 759 761 766 767 761 762 770 774 778 784 788 794 796 798 802 804 807 810 813 816 821 827 829 828 829 834 839 842 847 848 845 844 847 849 849 853 857 858 861 861 862 860 853 855 856 853 852 851 850 844 836 832 831 835 841 838 835 836 837 837 838 838 839 839 839 840
709 711 712 713 714 716 718 720 722 724 728 731 734 738 740 743 743 738 736 741 742 739 740 744 750 755 753 757 768 773 778 784 788 794 796 797 800 804 808 811 815 819 822 826 829 827 828 836 841 840 843 843 840 840 841 843 846 851 855 857 860 862 860 857 853 855 856 854 852 851 851 845 838 832 830 835 839 837 834 833 832 833 835 834 835 835 835 835
708 709 710 712 713 716 717 718 721 724 727 729 733 736 737 739 743 739 733 736 739 738 740 743 747 754 754 756 763 767 776 786 790 793 796 797 798 804 811 812 817 825 824 823 827 827 828 835 838 834 836 838 838 839 840 843 847 850 854 857 861 863 858 855 854 854 856 854 851 851 852 846 839 832 830 835 837 832 829 828 827 827 831 833 832 831 831 830
707 707 708 710 712 715 716 718 721 724 727 729 731 732 731 733 738 738 735 737 740 741 742 745 749 754 755 757 762 763 772 787 794 795 795 796 798 803 811 813 817 825 826 824 828 832 835 836 834 831 832 836 840 840 840 844 848 850 856 858 860 862 859 855 854 854 855 853 849 851 851 844 837 832 829 832 832 826 825 825 823 823 826 828 828 827 827 828
705 705 707 709 712 714 716 718 721 724 726 727 728 729 730 732 735 738 741 740 739 743 743 744 750 755 759 761 761 762 770 781 790 793 792 793 797 801 807 813 818 824 827 825 827 833 838 835 830 830 832 835 841 843 842 845 850 852 856 859 860 861 858 854 853 853 853 853 851 852 853 845 836 831 826 827 829 825 823 824 823 824 823 821 822 823 824 824
702 704 706 709 711 714 716 719 722 724 725 725 727 730 731 734 736 740 747 743 736 741 743 743 748 753 757 758 758 761 769 775 781 787 788 789 794 799 804 809 817 824 826 824 825 829 833 830 829 832 834 836 842 846 845 848 854 856 855 857 858 858 855 854 854 852 852 855 856 853 851 842 832 828 822 821 828 827 823 824 822 822 822 821 822 822 820 819
702 704 705 708 711 714 716 719 722 723 725 726 728 731 732 736 737 740 751 748 735 740 745 743 747 751 753 756 758 762 769 777 780 782 785 786 789 796 802 805 811 820 823 823 826 829 830 828 829 833 836 837 841 846 847 847 854 858 855 853 852 851 853 855 855 855 854 855 857 856 852 840 829 827 823 821 825 823 822 823 818 817 819 820 821 818 817 816
702 704 705 708 711 713 716 719 721 723 726 727 727 731 733 736 738 739 753 758 743 739 743 741 743 746 749 755 759 763 771 781 784 782 785 788 787 788 799 806 808 815 819 822 826 828 829 830 830 833 837 840 842 846 847 846 855 860 851 847 848 848 852 854 854 859 858 855 858 860 857 850 838 827 821 823 823 818 818 819 814 813 815 816 816 812 812 812
704 705 707 709 711 712 715 717 720 722 725 726 727 732 733 736 739 739 754 761 745 735 737 740 741 740 744 751 754 759 769 777 784 787 785 787 788 786 795 804 807 813 816 819 826 827 828 833 834 834 838 841 842 844 843 843 852 855 845 844 848 849 853 854 855 861 860 856 859 861 860 861 850 829 821 826 824 816 814 814 811 809 809 809 810 808 807 806
705 707 708 710 711 712 714 716 718 720 723 725 726 731 734 737 738 744 757 755 736 729 732 738 741 738 743 751 751 757 763 766 778 788 786 786 789 787 793 800 802 810 813 815 825 827 826 830 832 832 836 840 838 835 837 840 846 849 846 847 848 848 852 854 857 861 862 860 859 858 859 861 849 829 826 828 822 816 811 808 806 804 803 802 802 802 802 801
706 707 708 710 711 712 713 714 716 719 721 723 726 731 734 737 740 749 758 747 731 730 728 732 740 740 745 752 756 762 764 767 775 784 788 788 788 789 794 798 800 808 813 812 820 827 826 826 826 827 833 835 833 833 836 838 841 845 848 849 849 851 853 856 859 860 863 863 858 855 857 859 844 823 824 828 821 817 812 805 803 802 800 799 798 798 798 799
706 708 709 709 710 711 712 713 715 717 719 721 724 729 732 738 743 748 750 737 729 733 728 730 738 738 741 750 760 763 764 771 776 782 791 790 789 791 793 799 804 811 816 815 820 827 827 826 826 827 830 830 832 836 838 837 840 845 848 847 851 856 856 860 861 859 863 862 860 859 856 858 849 824 816 819 813 811 808 803 801 799 798 796 795 796 796 798
706 708 708 709 709 710 711 713 715 716 719 719 722 727 732 739 742 739 735 727 726 733 731 731 735 735 737 743 753 759 763 773 776 780 789 791 792 793 792 801 810 816 822 820 822 828 828 829 829 828 829 828 830 838 841 839 841 842 842 844 853 858 858 861 862 863 865 861 862 867 861 857 848 823 809 810 807 807 806 800 796 793 792 791 792 795 796 798
704 706 707 708 708 710 712 713 714 715 719 720 721 726 730 737 737 728 725 726 724 728 729 728 730 732 735 738 747 755 762 772 774 774 781 786 791 790 786 792 799 810 820 819 821 828 829 830 830 829 829 827 828 839 846 846 843 841 840 846 855 862 866 867 866 866 865 860 861 868 866 855 834 812 806 806 804 803 803 801 797 793 792 790 791 795 796 798
701 703 706 708 708 710 712 712 714 715 718 721 722 725 727 729 724 716 722 728 721 719 724 724 725 728 731 736 747 753 759 768 772 772 776 781 788 790 786 787 788 794 806 813 820 826 829 832 830 828 830 825 824 834 843 845 844 842 840 843 850 861 871 873 869 867 865 860 862 867 865 849 823 806 803 800 796 794 796 800 800 798 797 793 794 797 798 798
699 701 703 706 708 710 710 711 714 715 717 722 723 726 726 719 714 714 723 731 724 719 721 722 726 730 729 735 743 746 754 768 770 769 776 781 787 791 789 789 787 787 798 810 816 817 820 824 823 823 824 821 821 825 828 832 837 836 833 837 840 844 854 861 859 859 859 857 864 869 857 834 814 804 801 798 797 796 796 799 800 800 800 800 799 799 797 795
698 699 700 704 707 708 708 710 713 715 717 723 727 728 720 708 708 713 719 730 731 725 723 723 725 730 733 739 744 741 747 763 767 769 776 777 779 782 781 783 784 785 792 802 809 810 809 813 817 820 821 818 820 822 821 827 837 838 834 837 838 834 838 852 857 855 853 852 858 860 844 823 809 800 795 796 796 795 795 795 795 795 797 800 799 793 791 789
699 699 698 701 704 705 708 709 713 715 716 723 730 727 716 709 711 712 713 722 727 723 725 727 724 728 736 741 745 743 744 755 764 771 778 775 774 775 772 774 780 782 782 787 799 805 806 813 821 822 822 820 820 820 818 822 833 838 838 837 835 833 832 844 858 860 855 850 847 846 833 818 812 801 790 790 789 786 787 788 789 789 791 795 792 788 788 788
700 700 698 699 700 703 707 708 711 714 717 724 728 720 714 715 717 715 711 714 718 717 720 723 718 721 732 739 743 744 746 756 764 769 776 777 773 771 771 771 773 775 774 777 788 795 801 817 825 820 821 824 823 821 820 821 825 831 835 830 829 835 834 835 847 855 856 852 843 841 834 822 820 810 792 787 788 783 780 783 788 787 786 788 786 785 788 788
700 701 698 695 696 701 704 707 709 713 718 724 724 717 715 718 718 715 711 710 715 716 716 718 715 714 723 729 735 739 740 750 760 763 770 774 766 762 765 766 768 771 770 772 781 787 792 811 827 824 823 827 824 822 824 827 826 825 827 823 824 835 837 835 841 845 850 852 841 839 840 829 819 809 792 786 788 786 781 782 785 784 783 784 781 780 783 785
698 701 697 690 692 698 701 704 708 713 719 720 718 715 715 718 716 714 711 708 711 716 716 714 712 714 717 717 723 731 731 739 752 755 757 761 758 753 752 755 763 769 769 769 775 783 785 800 822 827 824 825 823 821 824 826 827 827 826 825 825 827 828 830 835 836 839 846 841 838 836 821 808 801 792 786 786 783 781 780 780 781 783 783 781 779 781 782
695 698 693 686 688 695 699 704 708 713 717 715 711 710 711 714 715 714 712 707 706 710 713 710 709 712 714 713 718 725 728 736 746 746 745 748 751 752 749 749 759 767 769 770 773 780 784 793 813 826 827 826 822 818 817 817 821 824 824 825 825 825 826 827 831 833 832 835 839 839 829 808 797 795 786 781 782 778 777 778 777 778 780 781 782 782 783 782
693 695 689 684 686 692 698 704 707 711 714 710 706 706 709 710 711 713 712 708 703 704 706 707 706 707 709 712 717 721 727 738 745 743 743 743 745 747 744 743 753 762 767 771 772 777 784 792 809 825 828 823 818 817 819 815 812 814 816 817 816 820 825 827 832 836 833 831 834 839 828 801 789 790 783 777 777 773 775 779 777 778 779 778 780 783 784 784
692 691 685 682 685 689 695 701 702 705 707 704 701 702 705 706 707 711 712 710 707 705 707 707 705 704 703 705 711 715 721 732 738 737 737 736 734 736 738 741 749 755 759 766 771 777 785 795 811 824 825 820 819 826 832 826 815 813 814 813 812 816 818 820 828 832 833 836 837 842 834 801 780 783 781 776 774 773 778 782 780 781 782 780 780 781 782 784
689 686 681 681 682 685 692 697 697 700 701 697 695 696 699 702 705 707 710 711 709 706 706 706 705 706 703 702 708 713 717 726 731 729 730 734 734 734 737 741 748 754 759 764 768 775 781 791 808 820 821 817 817 822 830 829 821 814 813 814 814 814 812 813 819 822 825 830 832 838 832 800 780 785 786 782 782 779 780 783 781 780 779 780 780 778 780 782
684 684 683 683 680 680 687 690 691 697 697 694 694 695 697 700 701 703 706 707 706 704 703 702 702 702 700 700 704 706 709 718 727 729 730 733 737 738 737 739 743 750 755 755 757 765 773 784 800 816 824 824 822 821 819 820 820 813 810 814 812 808 812 816 819 822 821 817 818 825 818 794 783 788 786 784 784 776 771 780 786 781 777 777 777 776 778 780
682 682 682 682 680 677 678 676 678 686 689 690 694 694 696 699 696 697 700 701 699 697 697 697 695 696 698 699 702 703 703 706 718 730 732 732 739 742 740 739 741 744 748 749 752 761 770 777 784 797 812 815 811 806 798 799 812 814 809 810 806 804 809 810 815 823 817 810 812 809 799 789 784 782 777 776 777 770 765 775 786 784 780 778 775 776 776 775
679 679 677 677 678 677 673 668 669 674 677 684 690 689 694 698 694 693 696 697 696 693 692 693 694 697 699 699 703 707 706 706 714 725 730 731 738 743 740 738 741 744 747 750 755 763 772 776 774 774 781 782 779 780 779 785 800 805 802 804 805 807 807 805 813 816 806 808 811 795 786 789 784 778 774 770 770 769 766 771 777 777 777 778 777 778 777 773
673 669 668 669 670 672 672 669 669 669 668 673 678 680 688 695 693 692 692 691 692 694 694 693 695 699 699 698 702 707 709 711 715 720 727 732 738 744 743 741 742 744 747 751 756 761 769 774 770 767 770 772 773 775 776 782 789 791 798 805 806 807 807 805 804 797 793 805 803 783 781 788 779 774 774 767 767 769 767 769 772 772 773 776 778 778 773 769
666 659 656 657 658 660 663 664 665 667 665 664 665 669 680 687 687 686 688 689 691 692 693 694 695 694 693 693 697 703 709 716 719 720 725 730 736 743 747 747 745 743 745 753 757 756 763 768 766 768 775 777 779 780 776 779 785 788 795 801 802 804 804 799 792 784 787 793 782 772 778 778 772 772 770 763 762 762 762 767 773 774 775 778 778 773 767 765
660 656 654 654 654 652 650 650 654 661 662 659 660 663 670 679 681 678 680 688 693 689 685 689 692 689 690 692 694 700 705 710 715 718 718 723 728 734 742 747 746 744 744 751 755 753 757 764 766 771 777 781 787 788 781 780 786 790 795 798 800 801 796 788 780 778 785 782 771 773 779 771 768 771 766 761 762 763 767 774 776 776 775 775 773 768 764 765
652 652 651 652 652 649 646 643 645 651 655 654 655 657 662 670 676 675 673 678 686 686 680 680 682 683 687 689 691 695 693 689 694 700 703 711 717 720 726 728 732 743 747 748 753 753 753 763 769 771 777 786 793 791 785 784 785 788 795 800 800 798 794 786 780 783 790 783 772 780 783 770 764 766 764 766 769 769 770 772 773 773 772 770 768 764 763 764
644 643 644 646 644 641 642 642 639 641 643 643 644 649 655 661 666 671 672 669 670 672 669 667 671 677 683 686 686 686 681 675 678 682 687 697 704 706 712 715 721 736 745 747 751 751 755 765 770 770 776 786 792 791 788 786 786 790 796 797 794 792 790 786 783 785 785 776 777 788 782 764 758 762 764 767 768 766 765 765 767 768 767 766 764 761 762 762
639 640 640 642 636 628 631 635 632 628 627 628 634 640 646 652 656 664 670 669 664 661 658 659 664 671 678 681 675 669 669 674 680 685 690 696 700 702 707 713 718 726 737 746 750 751 755 762 767 769 773 784 796 795 785 783 791 792 782 775 778 784 785 784 783 778 772 769 774 777 762 750 755 761 762 764 764 762 763 762 760 760 762 764 762 760 760 759